Location: Famechon
(49.7599°N, 2.0615°E)
Time: 16:00:31
(UTC+00:00)

S3M - Pass Details

Date: 03 February 2023
Orbit: 948 x 1005 km, 83.0° (Epoch: 26 March)

Event Time Altitude Azimuth Distance (km) Brightness Sun altitude
Rises 18:28:47 0° 164° (SSE) 3,719 6.9 -16.2°
Reaches altitude 10° 18:31:25 10° 158° (SSE) 2,774 6.2 -16.6°
Maximum altitude 18:37:23 43° 89° (E) 1,374 4.3 -17.6°
Drops below altitude 10° 18:43:21 10° 20° (NNE) 2,781 6.1 -18.5°
Sets 18:45:59 0° 14° (NNE) 3,729 6.9 -18.9°
